STARLINK-34560, 64700

Orbit data source: Space-Track

STARLINK-34560, 64700 is a payload satellite owned by SpaceX/Seattle (US) in LEO that was launched on Sat, 28 Jun 2025 UTC via an FALCON 9 launch vehicle from the Air Force Western Test Range (AFWTR). Payload-class satellites include a variety of spacecraft equipped with specific instruments for various scientific and technological missions. These include communications satellites like Starlink; space stations such as the ISS; scientific satellites like the Hubble; Earth observation satellites from companies like Planet Labs, Umbra, and HawkEye 360; GPS; miniature CubeSats for education and research; and military/defense satellites.

Loading next visibility...
Identifier
64700, 2025-142E
Orbit
LEO
Country
Flag of USUS
Related business
Manufacturer
SpaceX/Seattle
Mission
Operational Commercial Communications
Bus & Motor
STARLINK V2MO, Unknown motor
Mass
575 kg wet, ~530 kg dry
Launch date (UTC)
2025-06-28 (2 months ago)
Launch vehicle
FALCON 9
Launch site
Air Force Western Test Range (AFWTR)
Object type
Payload
Rocket body
Debris
Shape & HBR
Box + 1 Pan, 14.5 m
Radar Cross Section
41.120 m², Large (>1 m²)

Expand to show TLE details & history
Last TLE update: 1 day ago

TLE from 1 day ago
0 STARLINK-34560
1 64700U 25142E   25241.95535732  .00055839  00000-0  12683-2 0  9996
2 64700  70.0001  80.1735 0003274 270.8537  89.2270 15.42734058 10669
Epoch: 2025-08-29T22:55Z
TLE epoch observation values (Epoch: 2025-08-29T22:55:42.872Z)
Latitude
Longitude
117.84829°
Altitude
440.486 km
Speed
7.648 km/s
True Right ascension
05h 20m 41s
True Declination
0° 00' 00"
Sunlit
Object was in daylight at epoch
Visualization orbit readout
Latitude
Unknown
Longitude
Unknown
Altitude
Unknown
Speed
Unknown
Apparent Right ascension
Unknown
Apparent Declination
Unknown
Sunlit
N/A
Visualization observer readout
Local Sidereal Time
16:45:58
Azimuth
Unknown
Elevation
Unknown
Doppler factor
Unknown
Orbital elements
Apogee altitude
438.183 km
Perigee altitude
433.721 km
Semi-major axis
6,814.089 km
Eccentricity
0.00033
Inclination
70.0001°
RAAN
80.1735°
Arg. of periapsis
270.8537°
True anomaly
89.26451°
Mean anomaly
89.227°
Eccentric anomaly
89.24576°
Mean motion
3.85862 °/min
Orbital period
93.3 mins
BSTAR
0.0012683
Loading maneuver chart data...
Computing Atmospheric mass density...
Loading historical data...
Loading historical data...
Loading historical data...
Loading historical data...
Loading historical data...
Loading historical data...
Loading historical data...

Documentation

Showing up to 5 results
|